Hourly Weather Działdowo

Today, 16 May, Sunday

Time Temperature Precipitation Wind Pressure Humidity
00:00 +9°C° 0 mm 3 mps 741 mmHg 83%
01:00 +9°C° 0 mm 3 mps 740 mmHg 86%
02:00 +9°C° 0 mm 3 mps 740 mmHg 85%
03:00 +9°C° 0 mm 3 mps 740 mmHg 84%
04:00 +9°C° 0 mm 3 mps 740 mmHg 82%
05:00 +10°C° 0 mm 4 mps 740 mmHg 82%
06:00 +11°C° 0 mm 4 mps 740 mmHg 82%
07:00 +12°C° 0 mm 4 mps 739 mmHg 83%
08:00 +13°C° 0.4 mm 4 mps 739 mmHg 81%
09:00 +14°C° 0.4 mm 4 mps 739 mmHg 79%
10:00 +15°C° 0.4 mm 4 mps 739 mmHg 78%
11:00 +17°C° 0.5 mm 4 mps 739 mmHg 74%
12:00 +17°C° 0.5 mm 4 mps 739 mmHg 71%
13:00 +18°C° 0.5 mm 3 mps 738 mmHg 68%
14:00 +17°C° 0.7 mm 3 mps 738 mmHg 73%
15:00 +17°C° 0.7 mm 4 mps 738 mmHg 78%
16:00 +15°C° 0.7 mm 4 mps 738 mmHg 83%
17:00 +14°C° 0.9 mm 3 mps 738 mmHg 85%
18:00 +13°C° 0.9 mm 3 mps 738 mmHg 88%
19:00 +13°C° 0.9 mm 2 mps 738 mmHg 90%
20:00 +13°C° 0 mm 2 mps 738 mmHg 92%
21:00 +12°C° 0 mm 2 mps 738 mmHg 93%
22:00 +10°C° 0 mm 3 mps 738 mmHg 94%
23:00 +10°C° 0 mm 2 mps 738 mmHg 94%

Tomorrow, 17 May, Monday

Time Temperature Precipitation Wind Pressure Humidity
00:00 +9°C° 0 mm 2 mps 739 mmHg 94%
01:00 +8°C° 0 mm 2 mps 739 mmHg 95%
02:00 +8°C° 0 mm 2 mps 739 mmHg 94%
03:00 +8°C° 0 mm 2 mps 739 mmHg 94%
04:00 +7°C° 0 mm 2 mps 739 mmHg 93%
05:00 +9°C° 0 mm 2 mps 739 mmHg 89%
06:00 +12°C° 0 mm 2 mps 739 mmHg 85%
07:00 +12°C° 0 mm 3 mps 740 mmHg 81%
08:00 +14°C° 0 mm 3 mps 740 mmHg 75%
09:00 +16°C° 0 mm 3 mps 739 mmHg 69%
10:00 +18°C° 0 mm 3 mps 739 mmHg 62%
11:00 +18°C° 0 mm 3 mps 739 mmHg 59%
12:00 +19°C° 0 mm 3 mps 739 mmHg 56%
13:00 +20°C° 0 mm 3 mps 739 mmHg 53%
14:00 +19°C° 0.1 mm 3 mps 739 mmHg 58%
15:00 +18°C° 0.1 mm 3 mps 738 mmHg 63%
16:00 +18°C° 0.1 mm 2 mps 738 mmHg 67%
17:00 +16°C° 0.1 mm 3 mps 738 mmHg 74%
18:00 +13°C° 0.1 mm 4 mps 738 mmHg 81%
19:00 +12°C° 0.1 mm 5 mps 738 mmHg 87%
20:00 +10°C° 0 mm 5 mps 738 mmHg 88%
21:00 +11°C° 0 mm 4 mps 738 mmHg 90%
22:00 +11°C° 0 mm 4 mps 738 mmHg 91%
23:00 +10°C° 0.1 mm 4 mps 738 mmHg 92%

Day after tomorrow, 18 May, Tuesday

Time Temperature Precipitation Wind Pressure Humidity
00:00 +10°C° 0.1 mm 4 mps 738 mmHg 94%
01:00 +10°C° 0.1 mm 4 mps 738 mmHg 95%
02:00 +10°C° 0.2 mm 4 mps 738 mmHg 96%
03:00 +10°C° 0.2 mm 3 mps 738 mmHg 96%
04:00 +10°C° 0.2 mm 3 mps 738 mmHg 96%
05:00 +10°C° 0.2 mm 4 mps 738 mmHg 96%
06:00 +10°C° 0.2 mm 4 mps 738 mmHg 95%
07:00 +10°C° 0.2 mm 4 mps 738 mmHg 95%
08:00 +9°C° 0.1 mm 5 mps 738 mmHg 94%
09:00 +9°C° 0.1 mm 5 mps 739 mmHg 93%
10:00 +9°C° 0.1 mm 5 mps 739 mmHg 92%
11:00 +9°C° 0.1 mm 5 mps 739 mmHg 91%
12:00 +9°C° 0.1 mm 5 mps 740 mmHg 90%
13:00 +10°C° 0.1 mm 5 mps 740 mmHg 89%
14:00 +10°C° 0 mm 5 mps 741 mmHg 85%
15:00 +12°C° 0 mm 5 mps 741 mmHg 82%
16:00 +12°C° 0 mm 4 mps 741 mmHg 78%
17:00 +12°C° 0 mm 3 mps 741 mmHg 82%
18:00 +11°C° 0 mm 3 mps 742 mmHg 85%
19:00 +12°C° 0 mm 2 mps 742 mmHg 88%
20:00 +11°C° 0 mm 1 mps 742 mmHg 89%
21:00 +10°C° 0 mm 1 mps 742 mmHg 91%
22:00 +10°C° 0 mm 1 mps 742 mmHg 92%
23:00 +10°C° 0 mm 1 mps 742 mmHg 93%

19 May, Wednesday

Time Temperature Precipitation Wind Pressure Humidity
00:00 +9°C° 0 mm 1 mps 742 mmHg 93%
01:00 +8°C° 0 mm 2 mps 742 mmHg 94%
02:00 +8°C° 0 mm 2 mps 743 mmHg 94%
03:00 +8°C° 0 mm 2 mps 743 mmHg 95%
04:00 +7°C° 0 mm 2 mps 743 mmHg 96%
05:00 +13°C° 0 mm 4 mps 743 mmHg 68%
06:00 +12°C° 0 mm 4 mps 744 mmHg 74%
07:00 +10°C° 0 mm 4 mps 744 mmHg 81%
08:00 +12°C° 0 mm 4 mps 744 mmHg 76%
09:00 +13°C° 0 mm 4 mps 743 mmHg 68%
10:00 +14°C° 0 mm 4 mps 743 mmHg 61%
11:00 +14°C° 0.1 mm 5 mps 743 mmHg 64%
12:00 +14°C° 0.1 mm 4 mps 743 mmHg 64%
13:00 +14°C° 0.1 mm 4 mps 743 mmHg 65%
14:00 +12°C° 0.3 mm 4 mps 743 mmHg 76%
15:00 +13°C° 0.3 mm 4 mps 743 mmHg 71%
16:00 +15°C° 0.3 mm 4 mps 743 mmHg 66%
17:00 +13°C° 0.4 mm 3 mps 743 mmHg 72%
18:00 +12°C° 0.4 mm 3 mps 743 mmHg 78%
19:00 +11°C° 0.4 mm 3 mps 743 mmHg 83%
20:00 +10°C° 0.1 mm 3 mps 743 mmHg 85%
21:00 +8°C° 0.1 mm 3 mps 744 mmHg 88%
22:00 +7°C° 0.1 mm 2 mps 744 mmHg 90%
23:00 +7°C° 0 mm 2 mps 744 mmHg 90%

20 May, Thursday

Time Temperature Precipitation Wind Pressure Humidity
00:00 +6°C° 0 mm 2 mps 744 mmHg 90%
01:00 +6°C° 0 mm 2 mps 744 mmHg 91%
02:00 +6°C° 0 mm 2 mps 744 mmHg 92%
03:00 +6°C° 0 mm 2 mps 744 mmHg 93%
04:00 +6°C° 0 mm 2 mps 744 mmHg 95%
05:00 +7°C° 0 mm 3 mps 744 mmHg 90%
06:00 +7°C° 0 mm 4 mps 744 mmHg 84%
07:00 +10°C° 0 mm 4 mps 744 mmHg 79%
08:00 +10°C° 0 mm 5 mps 744 mmHg 74%
09:00 +12°C° 0 mm 5 mps 744 mmHg 70%
10:00 +14°C° 0 mm 5 mps 744 mmHg 65%
11:00 +14°C° 0.3 mm 5 mps 745 mmHg 64%
12:00 +14°C° 0.3 mm 5 mps 745 mmHg 63%
13:00 +15°C° 0.3 mm 5 mps 745 mmHg 62%
14:00 +14°C° 0.4 mm 5 mps 745 mmHg 64%
15:00 +14°C° 0.4 mm 5 mps 745 mmHg 67%
16:00 +14°C° 0.4 mm 4 mps 745 mmHg 69%
17:00 +12°C° 0.2 mm 3 mps 745 mmHg 73%
18:00 +11°C° 0.2 mm 3 mps 745 mmHg 77%
19:00 +10°C° 0.2 mm 2 mps 745 mmHg 81%
20:00 +10°C° 0 mm 1 mps 746 mmHg 83%
21:00 +9°C° 0 mm 1 mps 746 mmHg 86%
22:00 +8°C° 0 mm 1 mps 746 mmHg 88%
23:00 +8°C° 0 mm 1 mps 746 mmHg 89%

21 May, Friday

Time Temperature Precipitation Wind Pressure Humidity
00:00 +8°C° 0 mm 1 mps 746 mmHg 89%
01:00 +7°C° 0 mm 2 mps 746 mmHg 90%
02:00 +6°C° 0 mm 2 mps 746 mmHg 91%
03:00 +6°C° 0 mm 2 mps 746 mmHg 92%
04:00 +4°C° 0 mm 3 mps 746 mmHg 93%
05:00 +7°C° 0 mm 3 mps 746 mmHg 90%
06:00 +7°C° 0 mm 4 mps 746 mmHg 87%
07:00 +8°C° 0 mm 4 mps 747 mmHg 84%
08:00 +8°C° 0.1 mm 5 mps 747 mmHg 83%
09:00 +8°C° 0.1 mm 5 mps 747 mmHg 81%
10:00 +8°C° 0.1 mm 5 mps 747 mmHg 80%
11:00 +8°C° 0 mm 5 mps 747 mmHg 77%
12:00 +9°C° 0 mm 5 mps 747 mmHg 74%
13:00 +9°C° 0 mm 5 mps 747 mmHg 71%
14:00 +10°C° 0 mm 4 mps 747 mmHg 72%
15:00 +10°C° 0 mm 4 mps 747 mmHg 72%
16:00 +10°C° 0 mm 3 mps 747 mmHg 72%
17:00 +10°C° 0 mm 3 mps 746 mmHg 74%
18:00 +9°C° 0 mm 3 mps 746 mmHg 77%
19:00 +9°C° 0 mm 3 mps 746 mmHg 79%
20:00 +8°C° 0 mm 3 mps 746 mmHg 80%
21:00 +7°C° 0 mm 3 mps 746 mmHg 82%
22:00 +7°C° 0 mm 3 mps 747 mmHg 83%
23:00 +5°C° 0 mm 3 mps 747 mmHg 86%
Show more

We Need Your Consent

Meteoprog and our Service Providers may store and access personal data such as cookies, device identifiers or other similar technologies on your device and process such data to personalise content and ads, as well as provide social media features and to analyse the traffic.

  • Store and/or access information on your device

    Cookies, device identifiers or other information can be stored or accessed on your device for the purposes indicated above.

  • Personalised ads and content, ad and content measurement, audience insights, and products development

    Ads and content can be personalised based on a profile. More data can be added to better personalise ads and content. Ad and content performance can be measured. Insights about the audience who saw the ads and content can be derived. Such data can be used to develop or improve user’s experience, systems and software.

By clicking ‘I Agree’ you will allow the use of indicated cookies, device identifiers, web beacons or other similar technologies. Your settings can be changed in the browser on your device.

For certain purposes, legitimate interests may be relied on, rather than consent. You can read more about this in our Privacy and Cookie Policy.